User: anonymous   Login
Location: Montr�al
(45.5000°N, 73.5830°W)
Time: 01:04:42
(UTC-04:00)
Language:

Cosmos 2369 - Orbit

View from above orbital plane
View from above orbital plane
View from above satellite
View from above satellite

Ground track
Ground track

The orbit data is extracted from the following two-line orbital elements,

1 26069U 00006A   17141.89408384 -.00000310 +00000-0 -13945-3 0  9998
2 26069 070.9963 054.1498 0014093 270.2806 089.6701 14.13350747892401
Epoch (UTC): 21 May 2017 21:27:28
Eccentricity: 0.0014093
inclination: 70.9963°
perigee height: 838 km
apogee height: 858 km
right ascension of ascending node: 54.1498°
argument of perigee: 270.2806°
revolutions per day: 14.13350747
mean anomaly at epoch: 89.6701°
orbit number at epoch: 89240

The dashed part of the orbit path shows where the satellite is in the earth's shadow,  

DLR